Location: Corralito
(10.2667°N, 66.9500°W)
Time: 17:58:34
(UTC+00:00)

SEDSat Delta rocket - Pass Details

Date: 23 March 2023
Orbit: 532 x 991 km, 31.4° (Epoch: 08 June)

Event Time Altitude Azimuth Distance (km) Brightness Sun altitude
Rises 23:05:35 0° 298° (WNW) 3,184 8.0 -7.5°
Reaches altitude 10° 23:07:54 10° 296° (WNW) 2,330 7.2 -8.0°
Maximum altitude 23:13:30 73° 212° (SSW) 895 3.9 -9.4°
Drops below altitude 10° 23:19:50 10° 128° (SE) 2,628 5.8 -11.0°
Enters shadow 23:20:27 - 128° (SE) 2,848 5.9 -11.1°
